Lid_Strength_Index
-1 -1 -0 2 7 7 9 8 5 6 6 4 4 5 6 5 7 11 0 -0 -1 -1 -1 -1 -1 -1 -1 -1 -1 -1 -1 -1 -1 -1 -1 -1 -1 -1 -1 -1 -1 -1 -1 -2 -2 -2 -2 -2 -2
-1 -0 1 3 10 9 9 6 7 6 5 4 4 4 5 6 3 2 1 -0 -1 -1 -2 -1 -1 -1 -1 -1 -1 -1 -1 -1 -1 -1 -1 -1 -1 -1 -1 -1 -1 -1 -1 -1 -1 -2 -2 -2 -2
-0 -0 4 6 7 10 10 6 6 4 3 4 4 3 4 5 2 2 -0 -1 -1 -1 -1 -2 -1 -1 -1 -1 -1 -1 -1 -1 -1 -1 -1 -1 -1 -1 -1 -1 -1 -1 -1 -1 -1 -1 -2 -2 -2
1 2 3 8 8 7 7 6 4 5 4 3 3 5 3 1 2 1 -0 -1 -1 -1 -1 -1 -1 -1 -1 -1 -1 -1 -1 -1 -1 -1 -1 -1 -1 -1 -1 -1 -1 -1 -1 -1 -1 -1 -1 -1 -2
1 3 7 7 8 6 5 5 4 5 4 4 3 5 5 2 0 -0 -0 -1 -0 -1 -1 -1 -1 -1 -1 -1 -1 -1 -1 -1 -1 -1 -1 -1 -1 -1 -1 -1 -1 -1 -1 -1 -1 -1 -1 -1 -1
4 3 8 9 8 6 5 4 4 4 4 4 4 4 4 1 1 0 -0 -0 -1 -1 -1 -1 -1 -1 -1 -1 -1 -1 -1 -1 -1 -1 -1 -1 -1 -1 -1 -1 -1 -1 -1 -1 -1 -1 -1 -1 -1
4 4 7 8 7 6 5 4 5 4 4 4 3 5 3 2 1 -0 -0 -1 -1 -1 -1 -1 -1 -2 -1 -1 -1 -1 -1 -1 -1 -1 -1 -1 -1 -1 -1 -1 -1 -2 -2 -2 -2 -2 -2 -1 -1
3 4 7 6 8 7 4 4 3 4 4 2 2 6 5 2 0 0 -0 -0 -0 -0 -1 -1 -1 -1 -1 -1 -1 -1 -1 -1 -1 -1 -1 -1 -1 -2 -2 -2 -2 -2 -2 -2 -2 -2 -2 -1 -1
3 6 7 7 8 8 4 5 3 3 4 3 3 3 2 1 0 1 1 1 0 0 -0 -1 -1 -1 -1 -1 -1 -1 -1 -1 -2 -2 -1 -2 -1 -1 -1 -1 -2 -2 -2 -2 -2 -2 -2 -2 -2
4 6 6 5 4 5 4 4 4 6 5 6 3 2 1 1 1 2 2 2 1 1 0 -1 -1 -1 -1 -1 -1 -1 -1 -2 -1 -1 -2 -1 -2 -2 -1 -2 -3 -3 -2 -2 -2 -2 -2 -1 -0
4 6 5 4 4 4 4 4 3 5 7 4 5 3 2 2 2 2 2 2 1 1 0 -0 -1 -1 -1 -1 -1 -1 -2 -1 -2 -1 -2 -2 -1 -1 -1 -1 -1 -1 -2 -1 -1 -1 -1 -1 -1
5 4 4 4 4 4 5 4 4 4 4 3 2 2 2 2 3 3 3 3 1 1 0 -0 -1 -1 -1 -1 -1 -1 -1 -1 -1 -2 -2 -1 -1 -1 -1 -1 -1 -1 -1 -1 -1 -1 -1 -1 -2
5 4 4 4 4 4 4 4 4 4 3 2 2 2 2 2 3 2 2 1 1 1 0 -0 -1 -1 -1 -1 -1 -1 -1 -1 -1 -1 -2 -2 -1 -0 -1 -1 -1 -1 -1 -1 -1 -1 -0 -1 -1
4 4 4 4 4 4 6 5 4 4 3 3 3 3 3 3 2 2 2 2 1 1 0 -0 -1 -1 -1 -1 -1 -1 -1 -1 -1 -1 -1 -1 -1 -1 -1 -0 -0 -1 -1 -1 -1 -1 -1 -0 -0
4 6 5 4 4 4 4 7 6 4 3 4 4 3 3 3 2 2 2 1 1 0 -0 -0 -1 -1 -1 -1 -1 -1 -1 -1 -1 -1 -2 -1 -2 -2 -1 -1 -0 -0 -2 -1 -1 -1 -1 -0 -0
6 6 8 5 4 5 6 12 5 3 4 4 4 4 4 3 2 2 1 1 0 0 0 -1 -1 -1 -1 -1 -1 -1 -1 -1 -1 -1 -1 -1 -2 -2 -2 -1 -1 -0 -1 -1 -0 0 1 1 1
7 8 7 8 4 5 7 8 5 4 4 5 4 4 4 3 2 2 1 1 0 0 0 -0 -1 -0 -1 -1 -1 -1 -2 -1 -1 -1 -1 -2 -1 -1 -1 -1 -1 -2 -1 -1 -1 0 1 1 1
9 8 7 7 5 5 6 7 5 4 4 4 4 4 4 4 3 2 1 0 0 -0 -0 -0 -0 -0 -1 -1 -1 -1 -1 -1 -1 -0 -1 -1 -1 -1 -1 -1 -1 -1 0 0 0 1 -0 0 1
6 7 7 6 5 6 7 7 6 5 4 5 5 4 4 4 2 1 1 1 1 0 0 -0 -0 -0 -0 -0 0 0 1 0 -0 -1 -1 -1 -1 -1 -1 -1 -1 -1 -1 -1 -1 0 0 1 -0
6 8 9 6 5 6 7 7 6 5 5 5 4 4 4 4 3 3 2 1 1 1 0 -0 -0 -0 -0 -0 -0 -0 -0 -0 -1 -1 -1 -1 -1 -1 -1 -1 -1 -1 -0 -0 -0 -0 1 1 0
7 7 7 8 6 6 8 11 8 6 5 4 4 4 3 3 3 3 2 1 1 1 0 0 -0 -1 -1 -1 -0 -0 -1 -0 0 -0 -0 -1 -2 -2 -2 -2 -1 -1 -1 0 -0 -0 0 2 1
8 6 6 7 8 12 7 13 12 8 7 5 5 4 4 3 3 2 2 2 1 0 -0 -0 -0 -1 -1 -1 -0 0 1 1 0 0 -1 -1 -2 -2 -2 -2 -1 -1 -0 0 0 0 0 1 2
7 5 6 7 7 10 13 14 11 10 8 7 5 4 4 3 2 2 2 1 1 0 0 -0 -1 -1 -1 -1 -1 0 0 0 -0 -0 -1 -1 -2 -2 -1 -2 -1 -1 -0 -0 -0 0 0 0 1
5 6 7 9 8 16 12 11 12 13 8 7 5 4 4 3 2 2 1 1 1 0 0 -0 -0 -0 -1 -1 -1 -0 0 0 1 0 0 0 -0 -1 -1 -1 -1 -1 -1 -0 -0 -0 -0 -0 0
5 7 12 16 13 15 8 9 10 7 6 5 5 4 4 3 2 2 2 2 1 1 0 0 -0 0 -0 -0 -1 -1 -0 -1 -0 0 0 1 0 0 -1 -0 -0 -0 -1 -0 -1 -0 -0 -0 0
6 7 10 14 12 11 9 14 10 6 5 4 4 4 3 3 2 2 2 2 1 1 1 0 0 0 0 0 -0 -1 -1 -0 0 -0 0 0 0 0 -1 -1 -1 -1 -1 -1 -1 -0 -0 -0 0
7 8 6 9 9 11 11 9 7 6 6 5 5 4 4 3 3 2 2 1 1 1 1 0 0 0 0 0 -0 -0 -0 -0 0 -0 -0 0 -1 -0 -1 -1 -0 -0 -1 -0 -1 0 0 0 -0
6 5 9 9 13 13 12 12 14 8 7 6 6 5 4 3 3 2 2 1 1 1 0 0 -0 1 0 1 0 0 -0 0 -0 -1 -1 -0 -1 -1 -1 -1 -1 -0 -1 -1 -0 -0 -0 0 0
6 8 7 8 9 12 12 12 6 7 6 6 5 4 4 3 3 2 2 1 1 1 1 0 0 0 1 1 0 -0 1 0 -1 -0 -0 -1 -1 -0 -1 -0 -0 -0 -0 -0 -0 -0 -0 0 0
6 7 7 10 11 9 10 12 5 5 5 5 5 4 3 3 3 2 2 1 1 1 1 1 0 1 1 1 0 -0 0 -1 -0 -0 -0 -1 -1 -1 -0 -0 -0 0 0 -0 0 1 0 1 1